{"data":{"norad_id":65764,"intl_designator":"2025-217C","name":"KUIPER-00133","alt_names":[],"object_type":"PAYLOAD","status":"ACTIVE","operator":null,"country":"US","launch_date":"2025-09-25","launch_site_code":"AFETR","launch_vehicle":null,"mission":null,"orbit_class":"UNKNOWN","rcs_meters":null,"size_class":null,"mass_kg":null,"dimensions":null,"purposes":[],"wikipedia_slug":null,"has_3d_model":false,"image_url":null,"decayed_at":null,"tle_current":{"epoch":"2026-09-20T07:51:14.843232Z","epoch_age_seconds":161639,"freshness":"FRESH","line1":"1 65764U 25217C   26263.32725513  .00001702  00000+0  25216-3 0  9990","line2":"2 65764  51.9039 272.5005 0000525  61.5807 298.5209 14.79938947 53562","mean_motion":14.79938947,"eccentricity":5.25e-5,"inclination_deg":51.9039,"raan_deg":272.5005,"arg_perigee_deg":61.5807,"mean_anomaly_deg":298.5209,"bstar":0.00025216,"rev_number":5356,"period_min":97.301311173616,"perigee_km":629.14895420509,"apogee_km":629.88475785997,"semimajor_km":7007.6538560325,"source":"CELESTRAK","updated_at":"2026-09-21T09:00:15.533921Z"}}}